EW8780 Weather Reports


Display with metric or nautical units.
time (UTC)temp
F
wind
direction
speed
MPH
gust
MPH
rain 1hr
in
rain 24hr
in
rain mn
in
humidity
%
barometer
mb
20260905094513 52 207 0.0 0.0 0.00 0.41 0.00 96 1013.0
20260905093010 52 207 0.0 0.0 0.00 0.41 0.00 95 1012.8
20260905091509 52 207 0.0 0.0 0.00 0.41 0.00 95 1012.8
20260905090009 53 207 0.0 0.0 0.00 0.41 0.00 95 1012.7
20260905084506 53 207 0.0 0.0 0.00 0.41 0.00 95 1012.8
20260905083010 53 207 0.0 0.0 0.00 0.41 0.00 95 1012.9
20260905081503 53 207 0.0 0.0 0.00 0.41 0.00 95 1012.9
20260905080006 53 207 0.0 0.0 0.00 0.41 0.00 95 1012.9
20260905074502 53 207 0.0 0.0 0.00 0.41 0.00 95 1013.0
20260905073002 53 207 0.0 0.0 0.00 0.41 0.00 95 1012.9
20260905071606 53 207 0.0 0.0 0.00 0.41 0.00 95 1013.0
20260905070058 53 207 0.0 1.0 0.00 0.41 0.00 95 1012.8
20260905064557 53 207 0.0 1.0 0.00 0.41 0.41 95 1012.6
20260905063057 53 207 0.0 1.0 0.00 0.41 0.41 95 1012.6
20260905061607 53 207 0.0 1.0 0.00 0.41 0.41 95 1012.8
20260905060059 53 207 0.0 0.0 0.00 0.41 0.41 94 1012.8
20260905054555 54 207 0.0 1.0 0.00 0.41 0.41 94 1012.8
20260905053053 54 207 0.0 1.0 0.00 0.41 0.41 94 1012.8
20260905051550 54 207 0.0 1.0 0.00 0.41 0.41 94 1012.8
20260905050049 55 207 0.0 1.0 0.00 0.41 0.41 94 1012.5
20260905044547 55 207 0.0 1.0 0.00 0.41 0.41 94 1012.7
20260905043056 55 207 0.0 1.0 0.00 0.41 0.41 94 1012.8
20260905041546 56 207 0.0 1.0 0.00 0.41 0.41 93 1012.8
20260905040054 56 207 0.0 0.0 0.00 0.41 0.41 93 1012.8
20260905034543 57 207 0.0 0.0 0.00 0.41 0.41 93 1012.7
20260905033047 57 207 0.0 0.0 0.00 0.41 0.41 92 1012.5
20260905031548 58 207 0.0 1.0 0.00 0.41 0.41 92 1012.5
20260905030041 58 207 0.0 0.0 0.00 0.41 0.41 92 1012.4
20260905024541 59 207 0.0 1.0 0.00 0.41 0.41 91 1012.5
20260905023041 60 207 0.0 0.0 0.00 0.41 0.41 90 1012.6
20260905021540 61 207 0.0 2.0 0.00 0.41 0.41 90 1012.5
20260905020047 61 207 0.0 1.0 0.00 0.41 0.41 88 1012.5
20260905014538 61 207 0.0 2.0 0.00 0.41 0.41 87 1012.4
20260905013046 62 207 0.0 3.0 0.00 0.41 0.41 85 1012.3
20260905011605 63 211 1.0 3.0 0.00 0.41 0.41 83 1012.2
20260905010036 63 212 0.0 2.0 0.00 0.41 0.41 84 1012.2
20260905004536 64 186 1.0 3.0 0.00 0.41 0.41 82 1012.2
20260905003037 64 236 1.0 3.0 0.00 0.41 0.41 84 1012.2
20260905001543 63 212 1.0 5.0 0.00 0.41 0.41 83 1012.3
20260905000033 64 219 1.0 4.0 0.00 0.41 0.41 83 1012.2
20260904234536 66 254 1.0 5.0 0.00 0.41 0.41 80 1012.2
20260904233032 68 230 3.0 10.0 0.00 0.41 0.41 79 1012.1
20260904231532 69 177 4.0 10.0 0.00 0.41 0.41 79 1012.0
20260904230029 67 189 2.0 8.0 0.00 0.41 0.41 86 1012.0
20260904224527 63 227 3.0 7.0 0.00 0.41 0.41 87 1012.2
20260904223027 63 243 4.0 8.0 0.00 0.41 0.41 86 1012.0
20260904221523 65 197 4.0 9.0 0.00 0.41 0.41 84 1011.8
20260904220019 64 183 4.0 9.0 0.00 0.41 0.41 87 1011.8
20260904214616 62 209 3.0 7.0 0.00 0.41 0.41 88 1011.7
20260904213016 63 219 2.0 7.0 0.00 0.41 0.41 89 1011.7
20260904211514 62 219 3.0 7.0 0.00 0.41 0.41 89 1011.4
20260904210013 62 229 0.0 4.0 0.00 0.41 0.41 91 1011.6
20260904204510 60 245 0.0 3.0 0.01 0.41 0.41 91 1011.7
20260904203015 61 227 2.0 4.0 0.01 0.41 0.41 91 1011.7
20260904201507 60 223 2.0 4.0 0.01 0.41 0.41 91 1011.5
20260904200007 60 232 0.0 4.0 0.01 0.41 0.41 90 1011.5
20260904194507 60 169 1.0 5.0 0.00 0.40 0.40 90 1011.5
20260904193008 61 236 1.0 9.0 0.00 0.40 0.40 89 1011.4
20260904191505 61 200 1.0 6.0 0.00 0.40 0.40 89 1011.3
20260904190006 60 227 1.0 6.0 0.00 0.40 0.40 89 1011.4
20260904184503 60 251 1.0 4.0 0.00 0.40 0.40 90 1011.2
20260904183002 60 201 0.0 3.0 0.00 0.40 0.40 90 1011.2
20260904181505 61 132 0.0 5.0 0.00 0.40 0.40 90 1011.1
20260904180100 60 229 1.0 5.0 0.00 0.40 0.40 89 1011.0
20260904174602 60 246 1.0 5.0 0.00 0.40 0.40 90 1010.8
20260904173057 60 244 1.0 5.0 0.00 0.40 0.40 92 1010.7
20260904171604 59 138 1.0 7.0 0.00 0.40 0.40 94 1010.7
20260904170053 58 259 3.0 7.0 0.00 0.40 0.40 95 1010.5
20260904164550 58 231 0.0 3.0 0.00 0.40 0.40 96 1010.5
20260904163050 57 155 0.0 4.0 0.00 0.40 0.40 96 1010.4
20260904161546 57 232 0.0 2.0 0.00 0.40 0.40 96 1010.2
20260904160045 57 245 0.0 3.0 0.01 0.40 0.40 96 1010.1
20260904154547 57 296 0.0 0.0 0.01 0.40 0.40 96 1010.0
20260904153037 56 296 0.0 0.0 0.01 0.40 0.40 96 1009.9
20260904151536 57 296 0.0 1.0 0.01 0.40 0.40 96 1009.8
20260904150033 56 296 0.0 2.0 0.00 0.39 0.39 95 1009.7
20260904144530 56 296 0.0 0.0 0.00 0.39 0.39 95 1009.6
20260904143035 56 296 0.0 1.0 0.00 0.39 0.39 95 1009.3
20260904141527 56 296 0.0 1.0 0.00 0.39 0.39 95 1009.1
20260904140038 56 296 0.0 2.0 0.00 0.39 0.39 95 1008.9
20260904134526 56 296 0.0 2.0 0.03 0.39 0.39 95 1008.8
20260904133023 56 296 0.0 0.0 0.08 0.39 0.39 95 1008.8
20260904131526 56 296 0.0 2.0 0.12 0.39 0.39 95 1008.6
20260904130020 56 296 0.0 2.0 0.19 0.39 0.39 95 1008.5
20260904124519 56 296 0.0 0.0 0.20 0.36 0.36 95 1008.4
20260904123029 56 296 0.0 2.0 0.19 0.30 0.30 95 1008.4
20260904121520 56 265 0.0 1.0 0.21 0.27 0.27 94 1008.4
20260904120016 56 266 0.0 0.0 0.17 0.20 0.20 94 1008.4
20260904114515 56 266 0.0 0.0 0.13 0.16 0.16 94 1008.3
20260904113015 56 266 0.0 1.0 0.09 0.11 0.11 94 1008.3
20260904111514 56 266 0.0 0.0 0.04 0.06 0.06 94 1008.2
20260904110012 57 266 0.0 2.0 0.03 0.03 0.03 93 1008.1
20260904104512 57 266 0.0 2.0 0.03 0.03 0.03 93 1008.0
20260904103020 57 265 0.0 1.0 0.02 0.02 0.02 93 1008.0
20260904101508 57 237 0.0 0.0 0.02 0.02 0.02 92 1008.0
20260904100020 57 237 0.0 0.0 0.00 0.00 0.00 91 1008.1